contact:dominique.lefevre@mio.osupytheas.fr, maurice.libes@osupytheas.fr
Project:EMSO Ligure-ouest http://www.emso-fr.org/EMSO-France
Sensor Aquadopp, line 13 Serial AQD14315 
DOI : "https://doi.org/10.17882/74513; https://doi.org/10.17882/83244" 
Title:EMSO Ligure Ouest : Data ligne ALBATROSS capteur AQUADOPP - deploiement 2021
Id,Date,Profondeur,Latitude,Longitude,X_East,Y_North,Z_Up,Amplitude_X,Amplitude_Y,Amplitude_Z,Batterie,SoundSpeed,Heading,Pitch,Roll,Pressure,Temperature,Speed,Direction
, , m, degrees North, degrees East, m.s-1, m.s-1,m.s-1, 1, 1, 1, Volt, m.s-1, degree, degree, degree, dbar, degree_C, m.s-1, degree
07,2022-03-17T21:30:00,1500.0,42.79,6.0312,-0.001,0.004,-0.003,54.0,53.0,59.0,12.2,1504.2,128.0,-0.2,-0.4,1472.481,13.14,0.004,346.0
07,2022-03-17T22:00:00,1500.0,42.79,6.0312,-0.004,-0.001,0.0,54.0,55.0,58.0,12.2,1504.2,131.0,-0.1,-0.1,1472.456,13.14,0.004,256.0
07,2022-03-17T22:30:00,1500.0,42.79,6.0312,0.001,0.015,-0.001,54.0,56.0,56.0,12.1,1504.2,128.3,0.1,-0.3,1472.435,13.14,0.015,3.8
07,2022-03-17T23:00:00,1500.0,42.79,6.0312,-0.006,0.014,-0.017,57.0,57.0,56.0,12.2,1504.2,129.7,0.1,-0.3,1472.406,13.14,0.015,336.8
07,2022-03-17T23:30:00,1500.0,42.79,6.0312,-0.005,-0.006,0.003,56.0,59.0,54.0,12.2,1504.2,128.5,0.0,-0.4,1472.396,13.14,0.007,219.8
07,2022-03-18T00:00:00,1500.0,42.79,6.0312,0.004,0.001,0.005,51.0,55.0,56.0,12.1,1504.2,136.2,0.1,-0.1,1472.351,13.14,0.004,76.0
07,2022-03-18T00:30:00,1500.0,42.79,6.0312,-0.002,-0.001,0.015,57.0,51.0,54.0,12.2,1504.2,136.0,-0.2,-0.4,1472.324,13.14,0.002,243.4
07,2022-03-18T01:00:00,1500.0,42.79,6.0312,0.003,-0.004,-0.012,55.0,59.0,57.0,12.2,1504.2,138.9,0.1,-0.3,1472.355,13.14,0.005,143.1
07,2022-03-18T01:30:00,1500.0,42.79,6.0312,-0.002,-0.003,-0.009,58.0,59.0,55.0,12.2,1504.2,143.7,0.0,-0.3,1472.357,13.14,0.003,213.7
07,2022-03-18T02:00:00,1500.0,42.79,6.0312,0.013,-0.003,0.005,54.0,56.0,56.0,12.2,1504.2,144.9,-0.2,0.0,1472.363,13.14,0.013,103.0
07,2022-03-18T02:30:00,1500.0,42.79,6.0312,0.001,0.0,-0.004,59.0,55.0,55.0,12.2,1504.2,149.9,-0.2,-0.1,1472.354,13.14,0.001,90.0
07,2022-03-18T03:00:00,1500.0,42.79,6.0312,0.003,-0.003,-0.005,55.0,57.0,59.0,12.2,1504.2,151.0,0.1,-0.2,1472.412,13.14,0.004,135.0
07,2022-03-18T03:30:00,1500.0,42.79,6.0312,0.001,0.009,0.017,52.0,56.0,58.0,12.2,1504.2,135.6,-0.1,-0.1,1472.422,13.14,0.009,6.3
07,2022-03-18T04:00:00,1500.0,42.79,6.0312,0.007,-0.014,-0.015,60.0,56.0,59.0,12.2,1504.2,138.3,0.0,-0.1,1472.455,13.14,0.015,153.4
07,2022-03-18T04:30:00,1500.0,42.79,6.0312,0.005,-0.006,0.001,56.0,56.0,58.0,12.2,1504.2,136.6,-0.2,-0.4,1472.506,13.14,0.007,140.2
07,2022-03-18T05:00:00,1500.0,42.79,6.0312,0.008,-0.014,-0.007,56.0,56.0,53.0,12.2,1504.2,132.5,-0.2,-0.4,1472.551,13.14,0.016,150.3
07,2022-03-18T05:30:00,1500.0,42.79,6.0312,0.016,-0.01,0.012,56.0,56.0,54.0,12.2,1504.2,135.5,0.1,-0.4,1472.54,13.14,0.018,122.0
07,2022-03-18T06:00:00,1500.0,42.79,6.0312,-0.006,-0.013,-0.018,56.0,55.0,57.0,12.2,1504.2,141.1,-0.1,-0.1,1472.551,13.14,0.014,204.8
07,2022-03-18T06:30:00,1500.0,42.79,6.0312,-0.023,-0.01,-0.006,56.0,58.0,55.0,12.2,1504.2,135.9,0.0,-0.1,1472.609,13.14,0.025,246.5
07,2022-03-18T07:00:00,1500.0,42.79,6.0312,-0.014,-0.012,0.003,56.0,54.0,57.0,12.1,1504.2,154.2,-0.3,-0.2,1472.628,13.15,0.018,229.4
07,2022-03-18T07:30:00,1500.0,42.79,6.0312,-0.022,-0.006,0.003,57.0,55.0,58.0,12.1,1504.2,154.6,-0.3,0.0,1472.591,13.15,0.022,254.7
07,2022-03-18T08:00:00,1500.0,42.79,6.0312,-0.012,-0.012,-0.006,54.0,57.0,57.0,12.2,1504.2,140.0,-0.1,-0.2,1472.591,13.15,0.016,225.0
07,2022-03-18T08:30:00,1500.0,42.79,6.0312,-0.007,-0.007,0.007,54.0,58.0,57.0,12.1,1504.2,146.4,-0.1,-0.2,1472.603,13.15,0.009,225.0
07,2022-03-18T09:00:00,1500.0,42.79,6.0312,-0.023,0.001,-0.004,57.0,55.0,55.0,12.2,1504.2,141.1,0.0,-0.4,1472.595,13.15,0.023,272.5
07,2022-03-18T09:30:00,1500.0,42.79,6.0312,-0.022,-0.005,-0.004,57.0,55.0,57.0,12.2,1504.2,135.1,0.1,-0.1,1472.58,13.15,0.022,257.2
07,2022-03-18T10:00:00,1500.0,42.79,6.0312,-0.018,0.013,0.002,56.0,56.0,56.0,12.1,1504.2,140.4,0.1,-0.4,1472.554,13.14,0.022,305.8
07,2022-03-18T10:30:00,1500.0,42.79,6.0312,-0.034,0.015,0.006,56.0,54.0,58.0,12.2,1504.2,144.1,0.1,-0.3,1472.547,13.14,0.037,293.8
07,2022-03-18T11:00:00,1500.0,42.79,6.0312,-0.023,0.004,-0.005,59.0,57.0,56.0,12.2,1504.2,136.2,0.1,-0.4,1472.489,13.14,0.023,279.9
07,2022-03-18T11:30:00,1500.0,42.79,6.0312,-0.017,0.019,0.004,55.0,57.0,56.0,12.2,1504.2,144.6,-0.4,-0.4,1472.497,13.14,0.025,318.2
07,2022-03-18T12:00:00,1500.0,42.79,6.0312,-0.025,0.014,0.002,57.0,58.0,55.0,12.2,1504.1,136.7,-0.2,-0.1,1472.461,13.13,0.028,299.3
07,2022-03-18T12:30:00,1500.0,42.79,6.0312,-0.014,0.018,-0.02,55.0,56.0,56.0,12.2,1504.1,136.0,0.2,-0.3,1472.435,13.13,0.022,322.1
07,2022-03-18T13:00:00,1500.0,42.79,6.0312,-0.01,0.015,-0.019,54.0,56.0,56.0,12.2,1504.2,136.5,0.1,-0.3,1472.396,13.14,0.018,326.3
07,2022-03-18T13:30:00,1500.0,42.79,6.0312,-0.005,0.018,0.008,60.0,57.0,58.0,12.2,1504.2,144.0,0.0,-0.4,1472.364,13.14,0.018,344.5
07,2022-03-18T14:00:00,1500.0,42.79,6.0312,0.003,0.011,-0.016,53.0,58.0,57.0,12.2,1504.2,153.0,0.0,-0.4,1472.349,13.15,0.011,15.3
07,2022-03-18T14:30:00,1500.0,42.79,6.0312,0.001,0.023,-0.006,54.0,56.0,58.0,12.2,1504.2,166.7,-0.2,-0.4,1472.327,13.15,0.023,2.5
07,2022-03-18T15:00:00,1500.0,42.79,6.0312,0.0,0.009,-0.005,57.0,56.0,54.0,12.2,1504.2,174.5,0.1,-0.2,1472.378,13.14,0.009,0.0
07,2022-03-18T15:30:00,1500.0,42.79,6.0312,0.013,0.024,0.004,55.0,56.0,57.0,12.2,1504.2,186.5,-0.3,-0.4,1472.395,13.14,0.027,28.4
07,2022-03-18T16:00:00,1500.0,42.79,6.0312,0.009,0.009,-0.004,56.0,57.0,57.0,12.2,1504.2,196.4,0.1,-0.2,1472.429,13.14,0.012,45.0
07,2022-03-18T16:30:00,1500.0,42.79,6.0312,0.015,0.004,-0.002,60.0,56.0,56.0,12.2,1504.2,204.7,0.1,-0.3,1472.437,13.14,0.015,75.1
07,2022-03-18T17:00:00,1500.0,42.79,6.0312,0.015,0.013,0.002,57.0,55.0,55.0,12.2,1504.2,205.9,0.1,-0.3,1472.446,13.15,0.019,49.1
07,2022-03-18T17:30:00,1500.0,42.79,6.0312,0.007,-0.002,-0.008,57.0,57.0,58.0,12.2,1504.2,202.5,0.2,-0.4,1472.433,13.15,0.007,105.9
07,2022-03-18T18:00:00,1500.0,42.79,6.0312,0.006,0.01,0.016,59.0,59.0,55.0,12.1,1504.2,208.0,0.0,-0.4,1472.481,13.15,0.011,31.0
07,2022-03-18T18:30:00,1500.0,42.79,6.0312,0.005,0.01,0.005,55.0,60.0,56.0,12.2,1504.2,218.2,-0.2,0.0,1472.492,13.15,0.011,26.6
07,2022-03-18T19:00:00,1500.0,42.79,6.0312,0.008,0.007,0.016,52.0,59.0,57.0,12.2,1504.2,226.0,0.1,-0.1,1472.549,13.14,0.01,48.8
07,2022-03-18T19:30:00,1500.0,42.79,6.0312,0.005,0.0,0.0,59.0,56.0,66.0,12.2,1504.2,219.0,0.1,-0.2,1472.581,13.14,0.005,90.0
07,2022-03-18T20:00:00,1500.0,42.79,6.0312,0.007,0.016,-0.005,63.0,57.0,60.0,12.1,1504.2,210.6,0.0,-0.3,1472.565,13.14,0.017,23.6
07,2022-03-18T20:30:00,1500.0,42.79,6.0312,0.001,0.009,-0.018,61.0,59.0,49.0,12.2,1504.2,193.8,-0.3,-0.4,1472.54,13.14,0.009,6.3
07,2022-03-18T21:00:00,1500.0,42.79,6.0312,0.005,-0.006,0.013,54.0,54.0,57.0,12.2,1504.2,207.1,0.2,-0.4,1472.487,13.14,0.007,140.2
